User: anonymous   Login
Location: Campillo
(40.8621°N, 4.2488°W)
Time: 17:45:14
(UTC+00:00)
Language:

SL-8 Rocket - Orbit

View from above orbital plane
View from above orbital plane
View from above satellite
View from above satellite

Ground track
Ground track

The orbit data is extracted from the following two-line orbital elements,

1 21088U 91006B   21211.14498017  .00000079  00000-0  64518-4 0  9990
2 21088  82.9447 342.1027 0023843  71.1795 101.8931 13.77174418532594
Epoch (UTC): 30 July 2021 03:28:46
Eccentricity: 0.0023843
inclination: 82.9447°
perigee height: 956 km
apogee height: 991 km
right ascension of ascending node: 342.1027°
argument of perigee: 71.1795°
revolutions per day: 13.77174418
mean anomaly at epoch: 101.8931°
orbit number at epoch: 53259

The dashed part of the orbit path shows where the satellite is in the earth's shadow,  

DLR